Disclaimer   
PNR Super Search
 ♦ 
×
HashTag:
PNR Number:
Train Type:
Train:
From Station:
To Station:
Train Class:
2SSLCCEx3AFC2A1A3E
WL Quota:
DOJ From:
DOJ To:
Blogger:
Traveller:
Predictor:
Prediction:
WLRACConf
Stamper:
Final:
WLRACConfVoidQ-ConfUnStamped
Status:
Reaction:

Search
  Go  
 
Thu Jan 29, 2015 09:52:51 ISTHomeTrainsΣChainsAtlasPNRForumGalleryNewsFAQTripsMembersLoginFeedback
Thu Jan 29, 2015 09:52:51 IST
Post PNRPNR StatusModify Search

Ticket PNR Status Inquiry - PNR: 810-xxxxxxx (E-Ticket)

OLD STATUS

Status Last Updated on: May 21 2012 (7:50PM) IST

Date of Journey: Tue May 22, 2012   Class: Sleeper - SL   (Total Seats available for this Class/Quota: Avbl >183)
Passenger 1: SX1,33/Coach Position:11 (Booking Status: W/L 43,GNWL)
Passenger 2: SX1,36/Coach Position:11 (Booking Status: W/L 44,GNWL)
Passenger 3: SX1,34/Coach Position:11 (Booking Status: W/L 45,GNWL)
Passenger 4: SX1,35/Coach Position:11 (Booking Status: W/L 46,GNWL)
Passenger 5: SX1,37/Coach Position:11 (Booking Status: W/L 47,GNWL)
Passenger 6: SX1,38/Coach Position:11 (Booking Status: W/L 48,GNWL)
Chart PREPARED

Mumbai Bandra Terminus- Dehradun Express/19019

Travel Time: 34h 46m    85 halts    Distance: 1408 km    Avg Speed: 40 km/hr
Type: Mail/Express
Zone: WR/Western
Departs @ 04:04 (Avg 8m late)
Platform# 1
SMTWTFS
NVS/Navsari 
Arrives @ 14:50 +1 night (Avg 1h 3m late)
Platform# 1
SMTWTFS
HW/Haridwar Junction 

85 halts. 214 intermediate Stations between Navsari and Haridwar Junction

Show ALL intermediate Stations  Show Old Time-Table

#TrkCodeStation NameX/OArrivesAvgDepartsAvgHaltPFDay#KmSpeedElevZoneAddress
1/==/BDTSMumbai Bandra Terminus  -00:05+011-222.6374mWRMumbai 400050, Maharashtra
2/==/BVIMumbai Borivali  00:35+600:40+65m61-203.85019mWRMumbai - 400092, Maharashtra
3/==/BSRVasai Road  01:01+501:03+62m31-186.4747mWRVasai 401202, Maharashtra
4/==/PLGPalgharX  01:35+1801:37+202m11-146.85219mWRPalghar, Maharashtra
5/==/DRDDahanu RoadX  02:15+1002:17+112m11-113.99112mWRDahanu, Maharashtra
6/==/VAPIVapiX  02:49+1402:51+142m11-65.35427mWRVapi, Gujarat
7/==/BLValsadX  03:20+703:25+105m11-39.15715mWRValsad, Gujarat
8/==/BIMBilimora JunctionX  03:44+603:46+62m11-21.27911mWRBilimora, Gujarat
9/==/NVSNavsari»X  04:02+804:04+82m110.04914mWRNavsari, Gujarat
10/==/STSuratX  04:40+004:45+05m1129.67219mWRSurat 395001, Gujarat
11/==/KSBKosamba Junction05:11+505:13+52m--161.013930mWRKosamba, Gujarat
12/==/AKVAnkleshwar JunctionX  05:21+1105:23+112m1179.64319mWRAnkleshwar, Gujarat
13/==/BHBharuch JunctionX  05:36+1205:38+122m3188.98719mWRBharuch, Gujarat
14/==/MYGMiyagam Karjan  06:06+1706:08+162m21129.65629mWRKarjan, Gujarat
15/==/BRCVadodara JunctionXO  06:40+2206:50+2310m21159.46736mWRVadodara 390005, Gujarat
16/==/SMLASamlaya Junction  07:14+1:1507:16+1:152m21186.06767mWRVadodara, Gujarat
17/==/CPNChampaner Road Junction  07:26+3107:28+322m21197.25478mWRPanchmahal, Gujarat
18/==/DRLDerolX  07:42+3007:44+302m21209.77681mWRKalol, Gujarat
19/==/KRSAKharsaliyaX  07:54+3207:56+322m21222.427107mWRPanchmahal, Gujarat
20/==/GDAGodhra Junction  08:20+1408:25+125m21233.358122mWRGodhra, Gujarat
21/==/SATSant Road  08:46+2408:47+251m21253.765169mWROrwara, Gujarat
22/==/PPDPiplod Junction  08:58+2608:59+271m21265.568209mWRPiplod, Gujarat
23/==/LMKLimkhedaXO  09:06+3009:08+302m21273.525205mWRLimkheda, Gujarat
24/==/MAMMangal MahudiX  09:29+1909:30+201m21282.197248mWRDabhada, Gujarat
25/==/DHDDahodXO  09:45+2709:50+265m21306.445313mWRDahod, Gujarat
26/==/BIOBordi  10:04+2710:05+271m--1317.068289mWRNational Highway 59, Gujarat
27/==/ANASAnasX  10:12+2710:13+281m--1324.973288mWRMadhya Pradesh 389154 ?, Madhya Pradesh
28/==/MGNMeghnagar  10:25+2810:27+292m--1339.560317mWRJhabua, Madhya Pradesh
29/==/THDRThandla Road  10:35+3110:36+311m--1347.564317mWRJhabua, Madhya Pradesh
30/==/PCNPanch Pipila  10:49+3210:50+321m--1361.452369mWRSH 39A, Madhya Pradesh
31/==/AGRAmargarh  11:01+3111:02+311m--1370.950410mWRSH 39A, Madhya Pradesh
32/==/BMIBamnia  11:07+3211:09+312m--1375.045392mWRBamnia, Madhya Pradesh
33/==/BOGBhairongarh  11:17+3011:18+311m--1381.065374mWRBhairongarh Railway Station, Madhya Pradesh
34/==/RTIRaotiX  11:29+3211:30+321m--1392.954409mWRState Highway 39A, Madhya Pradesh
35/==/BILDBildiX  11:38+3311:39+331m--1400.060422mWRMadhya Pradesh, Madhya Pradesh
36/==/MRNMorwaniX  11:48+3311:49+331m--1409.121459mWRDantoda, Madhya Pradesh
37/==/RTMRatlam JunctionX  12:20+2812:40+2720m51419.849495mWRRatlam 457001, Madhya Pradesh
38/==/BODBangrod  12:52+3412:53+341m--1429.655484mWRRatlam, Madhya Pradesh
39/==/RNHRunkhera  13:01+3513:02+351m--1437.057478mWRUjjain, Madhya Pradesh
40/==/KUHKhachrodX  13:13+3413:15+342m--1447.514497mWRUjjain, Madhya Pradesh
41/==/NADNagda Junction  14:15+014:25+210m11461.257468mWRNagda, Madhya Pradesh
42/==/MEPMahidpur RoadX  14:43+614:45+82m--1478.380493mWCRGogapur, Madhya Pradesh
43/==/LNRLuni RichhaX  14:53+914:55+92m--1488.961471mWCRAlote, Madhya Pradesh
44/==/VMAVikramgarh Alot  15:08+715:10+82m21502.251443mWCRKota Division, Madhya Pradesh
45/==/THURThuria  15:19+815:21+82m--1509.871430mWCRMDR 45, Madhya Pradesh
46/==/CMUChau MahlaX  15:33+915:35+122m21524.066426mWCRJhalawar, Rajasthan
47/==/SVASuwasraX  15:49+1215:50+131m--1539.462450mWCRSuwasra, Madhya Pradesh
48/==/SGZShamgarhX  16:03+1616:08+165m--1552.859463mWCRMandsaur, Madhya Pradesh
49/==/GOHGarothX  16:19+1616:20+171m21563.772441mWCRMadhya Pradesh 458880, Madhya Pradesh
50/==/BWMBhawani MandiX  16:39+1416:41+162m--1586.358384mWCRBhawani Mandi, Madhya Pradesh
51/==/JHWJhalawar Road  16:58+1617:00+162m--1602.857361mWCRJhalawar City, Rajasthan
52/==/RMARamganj Mandi JunctionX  17:13+1317:15+172m--1615.242358mWCRRamganj Mandi, Rajasthan
53/==/MKXMorak  17:28+1617:30+162m--1624.268337mWCRMorak, Rajasthan
54/==/DARADaraX  17:43+1717:45+172m--1639.060354mWCRDara, Rajasthan
55/==/DKNTDakaniya TalavO  18:23+1318:25+162m11677.114278mWCRKota, Rajasthan
56/==/KOTAKota JunctionX  19:05+119:35+3030m11686.436256mWCRKota, Rajasthan
57|--|GQLGurla  19:44+3719:46+362m--1691.853251mWCRSH 33, Rajasthan
58/==/KPTNKeshorai PatanXO  19:55+3619:57+362m--1699.886243mWCRSH 33, Rajasthan
59/==/LKELakheriX  20:30+4320:32+452m--1746.951228mWCRBundi, Rajasthan
60/==/IDGIndargarh Sumerganj MandiXO  20:45+4520:47+462m--1757.953247mWCRIndargarh, Rajasthan
61/==/SWMSawai Madhopur Junction  21:28+3821:30+412m--1794.179266mWCRSawai Madhopur, Rajasthan
62/==/MLZMalarnaO  21:53+4221:55+432m--1824.345236mWCRSawai Madhopur, Rajasthan
63/==/GGCGangapur City  22:40+3722:45+415m21858.089270mWCRGangapur, Rajasthan
64/==/SMBJShri Mahabirji  23:08+5123:10+512m--1892.147240mWCRKarauli, Rajasthan
65/==/HANHindaun CityO  23:23+5123:25+532m--1902.344230mWCRKarauli, Rajasthan
66/==/BXNBayana Junction  00:10+4200:15+435m--2935.257198mWCRBayana, Rajasthan
67/==/BTEBharatpur JunctionX  00:59+3501:00+451m--2977.225174mWCRBharatpur, Rajasthan
68/==/MTJMathura Junction  02:20+2302:25+265m321010.775179mNCRMathura, Uttar Pradesh
69/==/KSVKosi Kalan  02:58+4303:00+442m121052.148189mNCRKosi Kalan, Uttar Pradesh
70/==/PWLPalwalO  03:53+3803:55+392m--21094.662200mNRPalwal, Haryana
71/==/ASTAsaoti  04:06+4604:08+462m321105.959203mNRAsaoti, Haryana
72/==/BVHBallabgarh  04:18+5204:20+512m321115.837203mNRFaridabad, Haryana
73/==/FDBFaridabad  04:33+5404:35+542m221123.939206mNRold Faridabad, Haryana
74/==/TKDTuglakabad  04:52+5404:54+542m221134.945213mNRNear Tughlakabad Metro Station, Delhi NCT
75/==/OKAOkhlaO  05:02+5405:04+542m--21141.014221mNRIshwar Nagar Mathura Road, Delhi NCT
76/==/NZMDelhi Hazrat NizamuddinX05:20+5505:50+5830m121144.642209mNRNew Delhi 110013, Delhi NCT
77/==/SBBSahibabad JunctionX  06:13+1:1906:15+1:222m--21160.722209mNRGhaziabad, Uttar Pradesh
78/==/GZBGhaziabad Junction  06:33+1:1506:35+1:152m121167.459217mNRGhaziabad, Uttar Pradesh
79%==%GZNNew Ghaziabad  06:41-06:43-2m--21173.370213mNRGhaziabad, Uttar Pradesh
80%==%MUDMuradnagar  06:53+1:3706:55+1:432m--21185.067220mNRGhaziabad, Uttar Pradesh
81%==%MDNRModinagarX  07:04+1:4407:06+1:442m--21195.149221mNRGhaziabad, Uttar Pradesh
82%==%MTCMeerut City JunctionXO  07:30+1:3808:43+1:1073m421214.652229mNRMeerut, Uttar Pradesh
83%--%MUTMeerut Cantt.  08:48+1:0808:50+1:132m--21218.925230mNRMeerut, Uttar Pradesh
84%--%PQYPabli KhasX  09:01+1:1209:03+1:122m--21223.533229mNRMeerut, Uttar Pradesh
85%--%DRLADauralaX  09:15+1:0809:17+1:102m--21230.157232mNRMeerut, Uttar Pradesh
86%--%KATKhatauli  09:36+1:0809:38+1:092m121248.034239mNRKhatauli, Uttar Pradesh
87%--%JDWJarauda NaraX  10:09+1:0210:10+1:021m--21265.514245mNRMuzaffarNagar, Uttar Pradesh
88%--%MOZMuzaffarnagarX  10:30+5510:32+572m221270.233247mNRMuzaffarNagar, Uttar Pradesh
89%--%BMHRBamanheriX  10:41+4910:43+492m--21275.250249mNRMuzaffarnagar, Uttar Pradesh
90%--%DBDDeobandX  11:06+4211:08+422m--21294.231258mNRSaharanpur, Uttar Pradesh
91/--/SRESaharanpur JunctionXO12:15+3112:45+2630m521328.477276mNRSaharanpur, Uttar Pradesh
92/==/RKRoorkee  13:12+4713:17+465m121363.138264mNRRoorkee - 247667, Uttarakhand
93/==/LRJLaksar JunctionX13:45+3514:10+3625m--21380.969238mNRLaksar, Uttarakhand
94%--%JWPJwalapur  14:30+5714:32+1:042m121403.913292mNRHaridwar, Uttarakhand
95%--%HWHaridwar Junction•X  14:50+1:0315:20+5730m121407.927294mNRHaridwar, Uttarakhand
96|--|MOTCMotichur  15:30+4915:32+522m121412.436312mNRHaridwar, Uttarakhand
97%--%RWLRaiwala Junction  15:43+5415:45+562m121419.027361mNRRishikesh, Uttarakhand
98%--%DWODoiwala  16:31+4516:33+502m121439.719484mNRDehradun, Uttarakhand
99%--%DDNDehradun  17:35+40-321459.5-648mNRDehradun, Uttarakhand
Scroll to Top
Scroll to Bottom


Go to Mobile site